SP5QWJ Weather Reports


time (UTC)temp
C
wind
direction
speed
KPH
gust
KPH
rain 1hr
cm
rain 24hr
cm
rain mn
cm
humidity
%
barometer
mb
20260905211825 14 0.0 0.0 0.00 0.00 0.00 100 1014.2
20260905210321 15 0.0 0.0 0.00 0.00 0.00 100 1014.1
20260905204816 15 0.0 0.0 0.00 0.00 0.00 100 1013.9
20260905203311 15 0.0 0.0 0.00 0.00 0.00 100 1013.8
20260905201806 15 0.0 0.0 0.00 0.00 0.00 100 1013.7
20260905200302 16 0.0 0.0 0.00 0.00 0.00 100 1013.5
20260905194800 16 0.0 0.0 0.00 0.00 0.00 100 1013.6
20260905193258 16 0.0 0.0 0.00 0.00 0.00 100 1013.6
20260905191749 16 0.0 0.0 0.00 0.00 0.00 100 1013.3
20260905190246 15 0.0 0.0 0.00 0.00 0.00 100 1013.4
20260905184743 15 0.0 0.0 0.00 0.00 0.00 100 1013.4
20260905183242 15 0.0 0.0 0.00 0.00 0.00 100 1013.5
20260905181738 15 0.0 0.0 0.00 0.00 0.00 100 1013.8
20260905180235 15 0.0 0.0 0.00 0.00 0.00 100 1013.6
20260905174731 16 0.0 0.0 0.00 0.00 0.00 100 1013.6
20260905173225 16 0.0 0.0 0.00 0.00 0.00 100 1013.5
20260905171720 16 0.0 0.0 0.00 0.00 0.00 100 1013.2
20260905170218 16 0.0 0.0 0.00 0.00 0.00 100 1013.3
20260905164711 16 0.0 0.0 0.00 0.00 0.00 100 1013.4
20260905163202 16 0.0 0.0 0.00 0.00 0.00 100 1013.3
20260905161659 16 0.0 0.0 0.00 0.00 0.00 100 1013.1
20260905160157 16 0.0 0.0 0.00 0.00 0.00 100 1013.0
20260905154652 16 0.0 0.0 0.00 0.00 0.00 100 1012.9
20260905153147 16 0.0 0.0 0.00 0.00 0.00 100 1013.1
20260905151643 17 0.0 0.0 0.00 0.00 0.00 100 1013.3
20260905150141 17 0.0 0.0 0.00 0.00 0.00 100 1013.3
20260905144637 18 0.0 0.0 0.00 0.00 0.00 93 1013.0
20260905143133 19 0.0 0.0 0.00 0.00 0.00 90 1012.5
20260905141629 20 0.0 0.0 0.00 0.00 0.00 89 1012.3
20260905140124 20 0.0 0.0 0.00 0.00 0.00 89 1012.1
20260905134620 20 0.0 0.0 0.00 0.00 0.00 89 1012.1
20260905133119 20 0.0 0.0 0.00 0.00 0.00 91 1012.1
20260905131613 20 0.0 0.0 0.00 0.00 0.00 91 1012.2
20260905130105 20 0.0 0.0 0.00 0.00 0.00 91 1012.2
20260905124605 20 0.0 0.0 0.00 0.00 0.00 92 1012.1
20260905123101 20 0.0 0.0 0.00 0.00 0.00 93 1012.1
20260905121556 20 0.0 0.0 0.00 0.00 0.00 93 1012.3
20260905120053 20 0.0 0.0 0.00 0.00 0.00 93 1012.1
20260905114549 20 0.0 0.0 0.00 0.00 0.00 96 1012.1
20260905113039 19 0.0 0.0 0.00 0.00 0.00 99 1012.0
20260905111537 19 0.0 0.0 0.00 0.00 0.00 99 1012.0
20260905110034 20 0.0 0.0 0.00 0.00 0.00 100 1012.0
20260905104526 18 0.0 0.0 0.00 0.00 0.00 100 1011.9
20260905103023 19 0.0 0.0 0.00 0.00 0.00 100 1011.8
20260905101519 21 0.0 0.0 0.00 0.00 0.00 99 1011.6
20260905100013 20 0.0 0.0 0.00 0.00 0.00 100 1011.5
20260905094506 20 0.0 0.0 0.00 0.00 0.00 100 1011.4
20260905093000 18 0.0 0.0 0.00 0.00 0.00 100 1011.5
20260905091458 19 0.0 0.0 0.00 0.00 0.00 100 1011.4
20260905085954 19 0.0 0.0 0.00 0.00 0.00 100 1011.2
20260905084450 20 0.0 0.0 0.00 0.00 0.00 100 1011.1
20260905082948 21 0.0 0.0 0.00 0.00 0.00 100 1011.1
20260905081443 21 0.0 0.0 0.00 0.00 0.00 100 1011.0
20260905075941 18 0.0 0.0 0.00 0.00 0.00 100 1010.9
20260905074435 18 0.0 0.0 0.00 0.00 0.00 100 1010.9
20260905072934 21 0.0 0.0 0.00 0.00 0.00 100 1010.8
20260905071433 17 0.0 0.0 0.00 0.00 0.00 100 1010.5
20260905065932 17 0.0 0.0 0.00 0.00 0.00 100 1010.4
20260905064428 17 0.0 0.0 0.00 0.00 0.00 100 1010.0
20260905062926 17 0.0 0.0 0.00 0.00 0.00 100 1009.9
20260905061418 17 0.0 0.0 0.00 0.00 0.00 100 1009.7
20260905055917 16 0.0 0.0 0.00 0.00 0.00 100 1009.6
20260905054414 16 0.0 0.0 0.00 0.00 0.00 100 1009.4
20260905052910 16 0.0 0.0 0.00 0.00 0.00 100 1009.3
20260905051408 16 0.0 0.0 0.00 0.00 0.00 100 1009.2
20260905045906 16 0.0 0.0 0.00 0.00 0.00 100 1009.0
20260905044401 16 0.0 0.0 0.00 0.00 0.00 100 1008.8
20260905042859 16 0.0 0.0 0.00 0.00 0.00 100 1008.6
20260905041357 16 0.0 0.0 0.00 0.00 0.00 100 1008.4
20260905035853 16 0.0 0.0 0.00 0.00 0.00 100 1008.0
20260905034348 17 0.0 0.0 0.00 0.00 0.00 100 1007.7
20260905032846 17 0.0 0.0 0.00 0.00 0.00 100 1007.2
20260905031343 17 0.0 0.0 0.00 0.00 0.00 100 1006.8
20260905025840 17 0.0 0.0 0.00 0.00 0.00 100 1006.9
20260905024335 17 0.0 0.0 0.00 0.00 0.00 100 1006.7
20260905022832 17 0.0 0.0 0.00 0.00 0.00 100 1006.8
20260905021328 17 0.0 0.0 0.00 0.00 0.00 100 1006.6
20260905015825 17 0.0 0.0 0.00 0.00 0.00 100 1006.4
20260905014320 17 0.0 0.0 0.00 0.00 0.00 100 1006.1
20260905012820 17 0.0 0.0 0.00 0.00 0.00 100 1006.3
20260905011316 17 0.0 0.0 0.00 0.00 0.00 100 1006.2
20260905005813 17 0.0 0.0 0.00 0.00 0.00 100 1005.9
20260905004311 17 0.0 0.0 0.00 0.00 0.00 100 1005.5
20260905002809 18 0.0 0.0 0.00 0.00 0.00 100 1005.4
20260905001305 18 0.0 0.0 0.00 0.00 0.00 100 1005.2
20260904235804 18 0.0 0.0 0.00 0.00 0.00 100 1005.3
20260904234300 18 0.0 0.0 0.00 0.00 0.00 100 1005.2
20260904232756 18 0.0 0.0 0.00 0.00 0.00 100 1005.1
20260904231254 18 0.0 0.0 0.00 0.00 0.00 100 1005.0
20260904225748 18 0.0 0.0 0.00 0.00 0.00 100 1005.1
20260904224245 18 0.0 0.0 0.00 0.00 0.00 100 1005.0
20260904222742 18 0.0 0.0 0.00 0.00 0.00 100 1004.5
20260904221233 18 0.0 0.0 0.00 0.00 0.00 100 1004.6
20260904215730 18 0.0 0.0 0.00 0.00 0.00 100 1004.6
20260904214227 18 0.0 0.0 0.00 0.00 0.00 100 1004.6
20260904212725 17 0.0 0.0 0.00 0.00 0.00 100 1004.1